Regional Weather Roundup
Issued by NWS

Home | Current Version | Previous Version | Graphics & Text | Print | Product List | Glossary On
Versions: 1 2 3 4 5 6 7 8 9 10 11 12 13 14 15 16 17 18 19 20 21 22 23 24 25 26 27 28 29 30 31 32 33 34 35 36 37 38 39 40 41 42 43 44 45 46 47 48 49 50
000
ASUS43 KTOP 201608
RWRKS

WEATHER ROUNDUP FOR KANSAS
NATIONAL WEATHER SERVICE GOODLAND KS
1100 AM CDT MON OCT 20 2014

NOTE:  "FAIR" INDICATES FEW OR NO CLOUDS BELOW 12,000 FEET WITH NO
SIGNIFICANT WEATHER AND/OR OBSTRUCTIONS TO VISIBILITY.

KSZ001>006-013>018-027>032-041>047-201700-
NORTHWEST KANSAS

CITY           SKY/WX    TMP DP  RH WIND       PRES   REMARKS
GOODLAND       SUNNY     64  47  53 SE5       30.18S
HAYS           SUNNY     64  50  59 NE5       30.13S
HILL CITY      SUNNY     62  50  64 S3        30.14S
RUSSELL        SUNNY     63  52  67 MISG      30.11R
$$

KSZ061>065-074>080-084>089-201700-
SOUTHWEST KANSAS

CITY           SKY/WX    TMP DP  RH WIND       PRES   REMARKS
DODGE CITY     PTSUNNY   56  56 100 NE10      30.14S FOG
ELKHART          N/A     62  48  60 N12         N/A
GARDEN CITY    SUNNY     64  52  64 E10       30.14S
GREAT BEND     SUNNY     63  54  72 NE7       30.12S
LIBERAL        SUNNY     63  54  72 NE8       30.16R
PRATT          PTSUNNY   55  54  94 NE8       30.12R FOG
$$

KSZ066>073-081>083-090>101-201700-
SOUTHEAST KANSAS

CITY           SKY/WX    TMP DP  RH WIND       PRES   REMARKS
CHANUTE        SUNNY     67  57  70 NW6       30.07F
COFFEYVILLE    SUNNY     66  56  70 SW6       30.07S
HUTCHINSON     SUNNY     69  56  62 NE6       30.09S
MEDICINE LODGE   N/A     69  58  67 NE13      30.08S
NEWTON         SUNNY     66  55  68 N9        30.10S
PARSONS        SUNNY     66  56  70 SW6       30.09S
WICHITA INTL   SUNNY     69  57  65 N8        30.08S
WICHITA JABRA  SUNNY     68  57  68 N8        30.08R
WICHITA MCCONL SUNNY     68  60  76 N7        30.08S
WINFIELD       SUNNY     67  59  75 CALM      30.08F
$$

KSZ007>012-019>026-033>040-048>060-102>105-201700-
NORTHEAST KANSAS

CITY           SKY/WX    TMP DP  RH WIND       PRES   REMARKS
CONCORDIA      SUNNY     62  49  62 NE5       30.11R
EMPORIA        SUNNY     66  57  72 N7        30.07S
LAWRENCE       SUNNY     65  52  62 NE8       30.07S
MANHATTAN      SUNNY     62  52  69 E5        30.09R
MARYSVILLE     SUNNY     64  46  52 E5        30.10R
OLATHE IND     SUNNY     63  54  72 N7        30.07S
OLATHE EXE     SUNNY     64  54  69 NE8       30.06R
SALINA         SUNNY     64  54  69 NW6       30.10S
TOPEKA BILLARD SUNNY     65  53  65 N9        30.08S
TOPEKA FORBES  SUNNY     64  52  64 VRB7      30.08R
$$


USA.gov is the U.S. government's official web portal to all federal, state and local government web resources and services.